Location: Im Fang
(46.6019°N, 7.2397°E)
Time: 13:57:50
(UTC+00:00)

STARLINK 1034 - Pass Details

Date: 08 December 2019
Orbit: 445 x 447 km, 53.0° (Epoch: 19 January)

Event Time Altitude Azimuth Distance (km) Brightness Sun altitude
Exits shadow 04:05:36 16° 86° (E) 1,173 6.1 -29.3°
Drops below altitude 10° 04:06:23 10° 92° (E) 1,470 6.7 -29.2°
Enters shadow 05:03:09 -68° 301° (WNW) 12,311 10.4 -19.5°
Maximum altitude 05:40:06 41° 218° (SW) 607 3.7 -13.4°
